Insat 2C

operational
NORAD ID: 23731 Int'l Des: 1995-067 Owner: ISRO Country: IN
HEOCIRCULAR

Insat 2Cについて

説明を読み込み中...

リアルタイム位置

3D地球を読み込み中...

次回通過

高度履歴

Altitude vs Time

uPlot chart will show altitude changes over time

軌道要素

1 23731U 95067B 26061.48836552 .00000082 00000-0 00000-0 0 9999
2 23731 14.2438 9.0662 0003835 5.6466 177.7889 0.99781985110341
Epoch: Mar 2, 2026 • Age: 28 hours

現在のステータス

高度 35915.3 km
速度 3.07 km/s
衛星直下点 12.96°N, 145.4°W
打ち上げ日 Dec 6, 1995
運用期間 30.2 years
タイプ other

技術仕様

分類 Payload
質量 2050.00 kg
乾燥質量 980.00 kg
総質量 2050.00 kg
長さ 2.70 m
直径 2.30 m
スパン 14.60 m
形状 Box + 2 Pan
製造者 ISRO
バスタイプ I2K
フェーズステータス In Orbit
所有者/国 ISRO/IN

大規模コンステレーション

Loading constellations...